Theta_e
305 306 306 303 304 306 303 301 300 300 301 301 301 302 302 302 302 303 303 303 303 303 304 304 304 305 307 310 311 310 310 310 312 313 317 320 315 314 317 319 319 317 316 326 335 333 335 334 332 334 333 336 341 346 351 352 353 355 363 364 358 360 359 359 359 354 355 358 358 355 355 359 358 358 356 352 355 354 354 353 351 351 350 352 353 353 354 353
307 308 305 304 305 304 301 300 301 302 303 302 301 301 301 301 302 303 304 304 304 303 304 304 305 307 308 311 311 311 311 311 314 316 322 318 318 318 315 316 317 318 312 317 332 336 333 333 331 331 333 336 341 347 351 354 353 356 364 364 357 361 361 358 357 354 354 354 354 355 354 354 355 355 352 353 358 355 355 355 351 351 351 352 354 353 353 353
308 306 304 304 303 301 301 301 302 302 302 301 301 302 301 301 302 304 305 305 306 305 305 305 306 308 311 313 311 312 313 315 321 325 326 319 321 319 317 316 313 319 316 312 327 335 329 330 331 331 334 337 341 346 350 353 354 354 359 362 360 358 357 357 356 353 352 352 352 355 353 352 352 351 350 353 356 356 356 355 352 353 352 352 352 352 353 353
305 303 303 302 301 301 301 301 301 301 301 301 301 302 301 301 303 304 305 306 308 308 307 306 307 310 314 314 310 312 314 321 331 327 322 322 323 320 317 317 313 316 319 313 322 333 330 328 330 331 335 338 340 344 350 352 353 353 355 359 358 354 354 355 354 353 350 350 352 353 352 351 349 349 350 351 355 358 355 353 352 352 351 352 352 352 353 353
301 301 301 300 301 301 300 301 301 300 300 301 301 301 301 302 303 305 306 307 308 309 308 308 308 312 315 313 312 315 318 325 326 322 322 322 324 323 317 316 316 315 319 316 318 329 331 328 330 331 334 339 340 342 347 349 350 352 353 354 353 353 358 357 355 355 349 352 359 355 351 350 348 348 348 351 356 356 353 351 350 350 350 351 352 352 353 353
301 301 300 300 300 300 300 300 300 301 301 300 301 301 301 302 304 305 307 308 308 308 309 309 310 313 315 313 313 316 323 323 321 322 322 322 324 325 318 315 316 316 319 320 320 324 327 328 330 332 333 337 340 342 344 344 346 350 350 349 350 351 356 357 355 358 353 354 359 353 349 350 350 349 348 350 355 354 351 350 350 349 349 350 352 352 351 352
301 301 301 301 300 300 301 300 301 301 301 301 301 301 302 303 305 306 307 308 308 308 309 310 312 314 314 313 315 319 324 322 321 322 324 322 323 325 321 317 316 318 321 321 322 323 324 326 328 332 333 335 338 340 341 341 343 347 347 345 348 348 351 354 352 355 354 353 354 349 348 352 352 354 351 349 353 353 351 350 349 348 348 349 351 351 351 352
301 301 301 301 301 301 301 301 301 301 301 301 301 301 303 304 305 307 307 308 308 309 310 310 314 315 313 315 321 325 323 321 322 322 323 322 322 325 324 321 319 320 323 321 321 322 323 324 326 330 334 336 337 338 339 340 342 344 346 344 344 349 351 352 351 350 351 351 351 350 350 350 349 353 353 350 353 353 351 350 349 348 348 349 350 350 351 351
301 301 301 301 301 301 301 301 301 301 301 301 301 302 304 305 306 307 308 309 310 311 311 311 315 315 314 317 324 327 325 321 322 323 322 322 323 323 324 324 322 322 323 321 320 321 323 324 324 327 331 334 335 337 338 341 343 343 344 343 343 351 353 352 353 350 348 349 350 351 353 349 346 351 353 350 353 353 351 350 349 349 348 349 349 350 351 351
301 301 301 301 301 301 301 301 301 301 301 301 302 303 305 307 308 308 308 310 312 312 311 313 317 316 314 319 323 324 324 321 322 323 322 322 323 324 323 322 322 323 323 321 321 320 322 324 324 325 327 330 334 336 338 340 343 342 342 343 343 349 353 351 352 351 349 350 351 353 354 350 347 350 353 351 352 353 351 351 349 349 349 349 348 349 351 350
301 301 301 301 301 301 301 301 301 301 301 302 303 305 307 309 309 309 310 312 313 313 312 315 318 316 315 321 323 320 321 321 322 323 325 325 324 325 324 321 320 323 323 321 321 321 321 322 323 325 326 328 331 335 338 339 341 341 341 342 341 346 352 351 351 351 350 352 352 353 353 352 349 349 351 352 353 352 352 352 350 350 350 349 348 349 351 351
301 301 301 301 301 301 301 301 301 301 302 303 305 307 309 310 310 310 311 314 315 313 313 316 318 316 317 321 322 320 317 321 322 320 322 326 326 325 324 320 319 321 322 322 321 321 321 322 322 325 327 329 331 334 338 338 339 341 341 343 341 342 349 351 350 350 351 352 351 351 352 354 352 349 351 353 352 352 352 352 351 350 350 349 349 350 351 351
301 301 301 301 301 301 301 301 301 302 302 304 306 308 310 310 311 311 313 316 315 313 314 317 318 316 320 323 321 316 314 317 318 317 318 323 325 326 326 322 319 319 320 321 321 321 321 322 322 323 326 329 332 336 338 338 339 341 342 343 341 338 344 350 349 350 352 349 349 348 347 352 353 349 352 352 351 352 353 353 352 351 350 349 349 350 351 351
301 301 301 301 301 301 301 301 301 302 303 305 307 309 311 312 312 312 315 317 314 315 317 318 318 318 321 324 318 313 314 314 316 318 318 321 323 323 327 326 322 320 319 320 320 321 321 321 322 323 324 327 331 334 336 336 338 341 338 338 339 331 337 351 349 350 353 348 348 348 342 348 353 348 352 352 350 352 353 353 353 351 351 350 350 351 351 351
301 301 301 301 301 301 301 301 301 303 304 305 307 310 312 312 312 313 316 317 317 319 318 318 319 320 322 322 319 316 320 321 321 319 317 322 322 322 325 326 325 323 321 320 320 321 321 321 322 323 324 326 329 332 334 334 334 337 331 329 335 329 334 352 350 349 353 348 348 347 340 348 354 348 351 352 350 352 353 353 352 351 351 350 351 351 350 350
301 301 301 301 301 301 301 301 302 303 305 306 308 312 313 311 310 312 317 319 321 321 318 319 320 321 327 327 321 320 324 328 328 322 320 322 322 324 324 324 324 323 322 322 321 322 322 324 324 325 326 327 330 332 332 329 328 334 330 324 329 329 332 343 349 349 350 348 348 346 342 347 352 347 349 352 351 352 353 353 352 351 351 351 351 351 351 351
302 301 301 301 301 301 301 301 302 304 306 308 310 312 311 309 309 312 319 322 321 321 319 321 321 322 330 326 322 325 325 326 326 324 325 322 322 324 324 323 323 323 323 322 321 322 323 325 326 328 328 329 330 330 327 322 322 328 331 327 328 332 331 333 341 346 346 348 349 348 347 347 348 347 348 351 352 353 353 353 352 352 351 352 351 351 351 351
302 302 302 301 301 301 301 301 302 304 306 310 312 311 309 308 308 313 321 322 321 321 320 322 322 323 326 325 327 328 323 322 321 321 323 323 323 323 324 323 322 323 323 324 324 323 324 325 327 329 330 329 330 328 323 321 323 323 326 326 326 330 332 331 336 342 344 345 346 346 347 347 348 348 348 349 351 352 353 353 352 352 352 352 352 351 351 351
303 302 302 302 302 301 301 301 303 305 308 313 312 308 308 308 309 317 323 318 314 315 316 323 327 325 319 322 324 320 318 318 317 318 320 324 324 322 324 324 322 324 325 327 326 324 325 326 327 327 328 329 330 328 324 325 328 328 328 328 325 326 329 335 338 340 344 343 345 346 345 346 348 348 349 348 349 351 351 352 353 352 353 353 353 352 352 352
304 303 302 302 302 301 301 302 303 306 309 313 311 308 308 307 308 315 317 310 307 308 307 312 321 320 316 317 316 314 313 314 317 318 318 322 324 323 323 322 323 325 325 327 326 325 327 327 326 326 327 329 329 328 327 328 330 331 331 329 328 326 327 336 339 339 342 341 342 346 346 347 347 348 349 347 348 349 349 351 353 353 353 352 353 353 352 352
305 304 304 303 302 301 302 302 304 308 310 312 311 308 307 307 306 308 308 307 307 308 307 307 309 311 312 312 311 311 310 312 315 316 317 320 323 323 322 322 324 324 325 326 326 326 327 326 326 327 328 329 328 328 327 328 329 329 329 326 326 327 329 336 338 337 341 341 339 345 346 346 347 347 348 348 348 349 347 350 352 353 353 353 353 354 352 352
305 305 305 303 303 302 302 303 305 309 311 312 311 308 307 307 307 307 306 307 308 308 308 309 308 308 309 309 310 310 310 311 311 313 318 320 321 323 323 322 323 324 325 325 326 326 325 325 326 327 329 329 328 328 327 327 328 327 327 324 322 326 329 333 336 338 338 338 339 343 343 344 348 347 347 349 348 349 348 348 351 352 352 353 353 354 353 352
305 305 305 304 304 302 303 304 306 309 311 312 311 309 308 308 308 307 307 307 308 309 310 310 309 309 309 309 310 310 311 311 311 312 316 319 321 322 323 322 321 324 326 325 326 324 322 324 327 327 328 331 330 327 327 327 326 326 325 321 320 325 326 324 330 335 337 337 341 343 341 343 349 348 348 348 347 348 348 347 348 350 351 352 353 353 353 352
304 305 305 305 304 303 304 305 306 309 311 312 311 309 308 308 307 307 307 308 308 309 310 311 311 310 310 311 310 311 311 311 311 312 315 319 321 321 321 322 321 322 326 327 326 324 324 326 327 328 328 331 330 329 328 325 323 325 326 323 321 325 326 325 330 334 333 334 340 341 333 335 347 351 349 349 348 348 348 349 349 349 350 350 352 352 352 352
303 304 305 305 305 305 305 305 306 309 311 312 310 308 308 307 307 307 307 309 312 311 312 313 313 312 312 312 312 311 311 312 311 312 316 319 320 321 321 320 320 321 324 327 327 325 326 327 327 328 329 330 330 331 330 325 321 322 325 326 325 327 329 330 334 331 324 324 335 339 325 326 342 349 350 349 350 350 348 350 350 349 349 349 352 353 352 352
302 304 305 305 305 305 307 308 308 310 312 311 309 308 308 307 307 307 308 311 317 318 316 316 314 313 313 312 312 313 312 313 312 312 314 317 319 321 319 319 320 320 323 328 328 326 326 328 328 328 328 330 331 330 330 329 322 318 324 327 327 329 328 330 331 326 320 320 332 338 327 324 332 341 351 350 349 352 349 350 350 348 349 349 351 353 352 352
302 304 306 306 305 306 310 311 309 311 312 310 308 309 308 307 306 307 312 315 318 318 315 315 314 312 311 311 312 314 313 314 314 312 312 315 319 320 319 319 321 321 324 328 326 326 328 329 329 329 329 329 329 328 331 331 323 320 326 328 328 328 327 329 328 324 324 325 331 337 331 324 323 331 347 351 348 351 350 349 349 348 348 349 350 352 353 352
303 305 306 306 305 308 310 310 310 311 311 309 309 310 309 307 306 309 315 314 312 313 312 311 312 311 310 311 312 314 314 313 314 314 313 313 317 320 319 318 320 323 327 329 325 328 330 330 330 331 329 327 328 329 332 332 327 326 331 330 329 329 329 330 328 324 325 323 323 329 327 325 325 332 343 350 347 348 351 349 348 348 348 349 350 351 352 352
303 305 307 307 307 309 309 310 310 310 309 309 310 311 309 306 309 315 319 315 310 309 311 310 311 310 309 310 311 312 314 313 314 316 315 315 317 319 319 319 320 323 328 330 329 331 331 331 330 330 330 329 329 331 333 332 330 330 331 332 330 331 331 331 329 324 322 320 318 321 321 322 327 334 337 343 345 345 350 350 347 348 348 349 350 350 352 353
303 307 308 309 309 310 310 310 310 309 309 310 311 310 308 308 315 319 319 317 311 307 309 310 309 309 309 309 310 311 312 314 314 315 316 317 319 319 319 321 320 323 327 329 331 331 331 331 332 331 331 331 330 331 332 332 332 331 331 331 330 331 332 331 329 324 319 318 317 318 320 321 323 330 333 337 345 347 349 350 347 347 347 349 351 350 351 353
304 308 309 310 310 310 312 312 309 309 310 311 311 309 307 312 319 319 314 311 309 307 309 309 308 309 308 308 310 310 311 313 313 313 315 318 320 321 320 321 321 321 324 325 328 330 330 331 332 331 330 331 330 329 331 332 332 332 332 329 325 324 324 322 323 322 319 319 319 318 320 317 317 328 337 338 343 346 348 349 348 347 346 348 350 350 351 351
304 309 310 310 310 311 312 313 311 310 311 312 311 307 308 314 319 317 312 309 309 309 309 308 308 308 308 309 310 310 311 312 312 313 314 316 320 322 321 322 321 319 317 319 322 326 330 330 331 331 331 333 330 326 327 330 332 332 330 325 320 319 319 317 318 319 319 321 321 319 318 315 317 332 345 343 340 340 344 346 347 346 346 348 349 350 351 351
304 310 310 309 311 311 312 313 311 311 312 312 309 306 311 317 317 313 309 309 309 309 308 308 308 307 308 309 309 310 310 310 311 312 314 315 317 320 321 322 323 321 319 319 318 319 323 328 330 329 329 332 331 325 321 324 329 330 325 320 318 318 318 319 320 318 318 320 320 317 317 316 318 328 339 340 339 338 339 340 345 347 345 346 348 350 351 352
304 309 310 309 311 312 312 312 310 312 313 310 308 309 312 315 315 310 308 309 308 308 308 308 307 308 309 309 309 310 310 310 311 312 313 314 314 318 321 321 322 323 321 319 317 316 317 320 326 328 327 329 331 327 323 325 327 328 329 324 318 318 319 320 319 316 318 322 318 315 317 315 316 327 338 335 335 338 338 338 342 346 345 345 348 350 351 353
304 309 311 311 311 311 312 311 309 310 311 308 309 313 312 312 312 309 309 309 307 307 307 307 308 308 308 309 309 309 309 310 311 311 312 312 313 316 319 320 321 322 321 318 317 316 314 316 323 326 327 327 328 326 326 327 324 325 330 323 317 322 324 321 319 319 320 320 316 315 319 322 326 337 340 332 332 333 335 338 341 345 347 346 348 351 352 353
304 308 312 312 311 311 311 311 309 308 310 309 311 314 313 311 311 309 308 308 307 307 307 307 308 308 308 309 309 309 309 309 310 311 311 311 313 316 317 317 318 317 318 318 319 317 313 315 321 325 326 325 327 327 325 325 323 324 322 318 321 329 325 318 317 321 318 316 319 318 318 322 323 328 332 328 330 332 333 337 341 345 348 348 350 352 352 353
305 309 312 312 312 312 311 311 310 308 310 312 312 314 314 311 309 308 307 308 307 307 307 308 308 308 308 308 308 309 309 310 310 310 310 311 313 316 316 316 315 314 315 316 319 321 317 317 322 323 325 323 325 327 325 327 328 323 318 319 325 327 323 321 319 319 316 315 320 317 314 317 316 322 337 333 326 331 333 332 339 346 348 349 351 352 352 354
306 309 313 313 311 310 309 310 309 308 311 312 313 315 313 310 308 307 307 307 307 307 308 307 308 308 308 308 308 308 309 311 311 310 310 311 312 314 315 314 313 313 313 313 317 321 321 320 323 322 325 325 325 325 323 325 327 325 322 324 326 319 316 318 318 318 315 314 318 316 314 317 316 321 333 329 324 331 331 328 337 347 350 349 351 352 352 353
306 311 316 314 310 310 309 309 309 309 310 312 314 314 312 309 308 308 307 307 307 307 307 307 307 307 307 307 308 308 309 311 310 310 311 311 311 313 315 313 312 312 312 313 316 319 321 322 322 322 325 325 325 323 318 320 325 326 324 326 328 321 317 317 316 317 318 317 317 316 315 318 322 327 328 326 326 328 328 327 335 345 351 349 350 352 352 353
307 311 316 311 309 310 309 308 309 309 310 313 313 311 309 308 308 308 308 307 307 307 307 307 306 307 307 307 308 308 309 310 309 309 310 310 312 314 314 312 311 312 311 312 314 317 322 326 324 325 325 322 322 322 321 321 322 322 319 319 321 320 320 320 317 317 322 323 320 317 317 319 327 329 327 328 328 325 327 327 329 342 350 348 350 351 351 353
307 311 312 309 309 309 308 309 309 309 311 314 311 307 307 309 308 307 308 307 307 307 307 306 306 307 307 307 307 307 308 309 309 309 310 311 313 314 314 312 311 312 312 312 313 316 322 325 326 328 324 319 320 325 327 326 324 324 319 318 319 318 317 316 316 316 317 322 326 323 318 322 332 332 327 328 328 325 328 325 325 341 349 347 350 350 350 352
307 308 309 308 309 309 307 309 309 308 309 310 308 306 308 309 308 307 307 307 307 307 307 306 307 307 307 307 306 307 308 308 310 311 311 311 312 313 313 312 311 311 311 311 312 315 320 322 325 328 325 321 324 326 326 326 327 327 325 323 324 321 316 312 314 317 311 315 325 322 316 324 343 345 332 326 327 325 327 325 325 339 348 348 349 349 350 352
306 306 307 307 308 308 308 309 309 308 308 308 307 307 307 307 307 307 307 307 307 307 307 307 307 307 307 307 307 307 307 309 310 312 312 312 312 312 312 311 311 311 311 311 312 313 319 322 323 326 327 325 326 327 326 328 328 325 325 327 324 322 320 318 323 324 315 312 316 315 313 321 341 353 339 331 331 326 326 326 325 336 347 348 348 349 350 350
306 306 308 308 307 307 308 309 309 309 309 309 308 307 307 307 307 308 308 308 307 307 307 307 307 307 307 307 308 307 308 310 311 311 312 312 312 311 311 311 311 311 310 311 312 314 318 319 319 325 332 325 321 324 325 325 325 324 326 327 324 325 324 322 328 325 316 314 314 316 316 320 340 359 345 334 332 326 326 327 326 336 345 346 348 349 349 350
307 307 308 307 307 308 308 308 309 308 309 310 309 308 307 308 308 308 308 307 307 307 307 307 308 308 308 308 308 307 308 311 312 312 312 312 311 311 311 310 310 311 311 313 315 315 317 317 317 325 334 329 324 328 326 323 324 324 326 327 325 326 322 320 323 317 315 319 317 315 317 321 338 353 337 330 331 326 327 328 327 334 342 346 348 348 349 349
308 308 307 307 307 308 307 307 307 308 309 310 310 309 307 308 308 308 308 307 307 307 307 308 307 308 308 308 308 307 307 308 311 312 312 311 312 311 311 310 310 311 314 316 316 315 315 316 316 320 327 329 327 330 329 327 325 323 323 324 326 325 322 324 322 317 321 325 318 318 322 319 332 348 336 330 331 328 330 331 329 333 338 345 348 347 349 349
308 308 307 307 308 308 307 307 307 307 308 310 310 309 308 308 308 308 308 308 308 308 308 310 308 308 308 308 308 308 307 308 309 310 311 312 312 311 310 310 310 312 315 314 313 315 315 315 316 317 320 321 321 322 323 326 327 325 323 323 325 327 324 321 318 321 331 326 316 327 334 321 329 352 343 334 338 342 345 345 340 336 337 344 347 347 349 348
308 308 306 306 308 308 307 306 306 307 308 310 310 309 308 308 308 308 308 308 308 308 310 311 310 308 309 309 308 309 308 309 310 310 311 312 311 312 312 312 311 313 313 311 311 314 315 314 315 316 317 316 316 318 321 325 329 330 327 324 324 326 323 319 319 327 336 325 317 332 340 327 333 350 343 340 347 349 352 354 351 343 339 342 345 346 347 348
309 308 307 306 307 307 306 306 306 308 309 310 311 310 309 309 309 308 308 307 308 308 309 310 310 308 308 308 309 309 309 309 310 311 312 312 311 312 314 314 314 313 310 311 312 312 315 317 316 315 315 315 316 320 324 329 331 328 327 326 326 327 325 322 323 330 335 334 335 345 344 335 338 342 340 343 344 343 345 350 352 348 343 343 345 346 346 347
309 309 308 307 307 306 306 306 307 308 309 309 311 311 309 308 308 307 307 308 308 309 308 309 309 309 308 308 308 309 309 309 310 309 310 311 311 313 315 314 314 313 310 310 311 311 315 318 316 315 315 316 319 323 325 329 330 327 329 329 326 326 325 322 325 330 331 331 341 350 345 340 340 339 338 339 339 339 340 344 348 348 344 343 345 344 344 347
309 308 308 308 308 307 307 307 307 308 309 309 311 311 309 308 307 306 308 308 308 309 309 309 309 309 309 309 309 310 309 308 308 307 308 308 309 313 316 314 311 312 311 311 311 311 314 316 316 315 315 317 319 320 322 328 331 330 330 331 326 324 325 324 323 330 331 328 333 340 338 337 337 336 336 337 337 336 336 339 344 347 347 349 348 345 345 346
308 308 308 308 308 307 307 307 307 308 309 309 309 310 310 309 308 307 309 309 307 308 310 309 309 310 310 310 310 310 309 307 307 307 307 307 307 310 313 312 310 311 311 311 311 311 313 315 316 315 316 318 318 317 323 331 332 330 329 329 331 329 329 327 324 336 342 337 333 336 340 343 339 335 335 335 333 334 337 337 338 340 346 351 352 349 350 349
Wind_Speed
27 27 26 29 30 28 29 32 33 32 31 31 31 31 30 28 27 26 25 24 22 20 20 21 22 21 20 18 16 15 14 15 17 11 14 28 31 23 14 8 12 20 20 12 14 15 12 13 14 15 13 9 6 4 9 9 5 4 3 3 4 4 3 4 4 5 8 4 4 5 7 7 6 8 5 5 8 13 14 7 8 8 10 16 23 31 34 35
27 26 28 30 30 31 33 34 34 32 31 31 32 32 30 29 28 27 26 24 22 20 20 22 22 21 19 17 14 11 12 15 15 15 26 35 32 26 24 20 15 18 25 21 18 19 12 10 12 13 8 5 6 6 7 7 7 5 3 3 5 5 5 4 4 4 8 8 10 9 8 9 9 10 8 8 12 14 13 9 11 12 14 18 26 33 33 33
27 28 30 31 32 34 36 35 34 33 33 34 33 31 31 30 29 28 26 24 22 21 21 22 22 19 17 15 11 8 9 11 8 16 22 20 25 30 27 25 22 19 25 29 25 22 18 15 14 11 6 5 6 7 7 6 7 6 4 4 7 8 6 4 5 4 5 11 14 11 10 10 10 9 8 10 15 15 12 12 14 15 18 20 23 28 31 30
31 33 33 34 35 36 36 36 35 35 36 35 34 33 32 31 29 28 26 24 23 22 22 22 22 18 14 11 6 4 6 6 5 10 8 8 10 23 26 25 25 23 23 27 28 24 20 16 13 10 6 6 5 6 7 7 6 5 6 7 8 7 5 8 6 5 4 10 11 9 13 13 11 10 8 10 13 11 12 14 17 19 22 23 22 24 28 28
35 36 36 37 37 37 37 36 36 37 37 36 35 34 33 32 29 28 25 24 24 23 23 22 20 16 12 7 1 1 2 2 4 5 1 9 7 15 27 25 26 28 23 23 25 22 17 13 10 8 6 5 5 6 8 11 7 4 8 12 12 6 4 8 5 6 4 7 8 7 10 11 11 11 9 12 11 9 12 15 19 22 24 25 24 23 24 24
37 38 38 38 38 38 38 38 37 37 37 37 36 36 35 33 30 27 24 24 25 25 23 21 18 13 7 2 4 1 1 2 7 5 3 10 11 8 27 30 29 29 25 22 21 18 13 10 10 8 6 6 8 9 8 10 9 6 8 11 13 10 7 6 4 6 5 5 6 8 6 5 7 7 9 12 8 9 15 17 20 22 24 27 25 23 22 22
38 39 40 40 40 40 40 39 38 37 37 37 37 37 36 33 30 27 25 24 25 25 23 19 15 9 2 4 5 1 1 7 15 10 8 6 12 2 23 34 31 29 27 22 17 13 11 10 10 9 7 7 9 11 10 9 11 10 9 10 12 12 11 6 5 6 6 6 5 7 6 6 7 5 5 9 7 12 16 18 20 20 23 25 24 22 22 22
39 40 40 41 41 41 41 41 40 39 38 38 38 38 36 33 31 29 27 26 26 24 21 15 12 6 3 5 3 0 1 13 18 10 11 15 13 2 21 31 31 31 28 24 19 14 12 11 12 9 9 9 8 10 10 9 10 11 13 12 10 10 12 8 7 8 8 7 5 5 6 7 9 3 1 5 11 16 17 18 19 20 21 21 21 22 21 20
39 41 41 41 41 41 41 41 41 40 39 39 39 38 36 33 31 31 30 29 25 20 18 12 9 4 4 4 0 2 6 11 11 9 10 13 8 7 23 30 32 32 25 23 22 17 12 11 13 10 8 9 9 9 9 8 8 11 14 13 10 9 10 9 9 10 9 6 5 6 6 7 7 4 1 4 15 18 18 19 19 21 20 19 19 20 20 20
40 40 41 41 41 41 41 41 41 40 39 39 39 37 35 33 32 32 31 29 22 16 14 7 4 0 5 3 2 2 6 2 8 11 5 9 5 14 25 30 35 30 21 19 19 16 11 10 12 10 6 6 9 10 10 9 8 10 12 12 13 12 9 10 11 11 8 5 6 7 6 6 6 4 2 5 17 19 19 20 19 20 20 20 18 17 19 20
40 40 40 40 40 40 40 40 40 39 39 38 38 36 34 33 33 33 31 26 18 12 8 4 3 2 5 2 3 6 6 4 5 15 7 7 12 19 26 32 37 31 21 16 17 20 17 14 11 7 5 5 8 9 9 12 11 10 10 11 14 13 10 10 11 10 6 5 8 8 4 4 4 2 5 11 18 20 21 20 19 19 17 19 18 15 16 17
40 40 40 41 41 40 40 40 40 39 38 37 36 34 34 33 33 33 30 24 15 9 4 3 2 5 4 1 7 15 9 6 5 13 14 7 14 18 24 31 36 35 27 15 17 25 23 20 13 7 6 4 5 5 7 12 11 11 11 9 12 11 9 11 11 9 7 5 10 9 3 3 3 5 11 17 18 19 21 20 19 18 15 17 16 13 13 16
41 42 41 42 42 41 40 40 39 39 37 35 34 34 34 33 32 32 29 20 11 6 3 3 4 6 5 1 14 25 19 16 18 23 19 10 12 14 20 30 35 37 34 23 21 27 27 24 15 8 8 4 3 4 6 8 7 9 10 7 9 8 8 12 12 11 9 7 13 11 1 4 7 9 17 18 18 19 19 18 18 16 14 15 14 12 12 15
43 43 43 43 43 41 40 39 40 38 35 34 33 33 34 31 29 30 25 13 5 2 2 3 6 8 5 6 19 25 25 26 26 24 18 12 12 13 16 26 32 33 34 29 24 25 27 24 13 7 8 7 6 6 8 6 4 5 6 5 5 5 6 11 13 12 11 8 15 12 4 5 6 11 18 17 20 21 18 19 18 16 15 14 14 12 12 13
44 44 44 44 44 42 40 39 40 37 34 33 33 33 32 28 26 26 19 8 2 1 2 5 10 8 1 10 18 19 16 16 22 26 22 15 10 10 15 23 27 29 30 28 24 20 23 19 9 6 7 8 8 8 7 5 4 3 4 5 4 4 5 9 13 14 12 9 16 13 4 5 7 11 19 17 20 22 19 19 18 18 18 16 14 13 13 12
45 46 45 44 44 43 41 39 39 36 33 32 33 32 28 23 23 22 12 4 3 1 3 6 11 8 1 7 10 10 6 7 13 17 17 19 15 12 19 23 22 24 24 25 23 18 18 13 6 7 7 7 8 7 5 5 5 3 4 4 4 4 4 6 10 15 15 10 14 14 4 5 8 12 20 20 20 21 19 19 20 19 19 17 14 14 14 12
46 47 46 45 44 43 42 39 37 36 32 31 32 29 23 20 21 17 6 3 6 2 4 4 8 7 5 9 9 8 4 5 10 9 9 19 23 19 18 16 13 17 17 18 19 14 11 8 5 6 7 7 6 5 4 6 7 4 3 4 5 5 4 4 7 12 15 11 12 15 9 5 9 14 20 22 21 20 18 18 20 18 17 16 14 14 14 13
47 47 46 45 44 44 41 38 36 34 32 30 29 25 20 20 21 12 2 4 7 2 3 2 4 4 4 7 5 7 8 13 18 18 15 15 25 26 19 13 10 13 11 8 11 10 7 5 5 5 6 7 7 7 8 8 6 5 4 3 5 5 5 5 6 8 13 14 12 14 14 8 12 17 19 21 21 19 18 19 18 18 17 16 15 15 15 15
47 47 47 46 44 43 40 38 34 31 30 28 26 23 17 18 15 4 1 7 7 3 4 4 4 2 6 6 6 12 17 19 23 23 16 11 21 24 20 14 12 12 9 5 8 9 6 4 5 7 8 10 10 10 9 6 4 6 5 4 5 6 6 7 8 7 10 13 11 13 14 10 15 20 19 19 20 19 18 18 16 16 16 16 15 15 16 16
47 47 48 46 44 42 38 37 32 27 27 27 27 21 13 13 9 1 5 10 9 9 12 12 9 9 14 13 14 17 20 18 13 12 15 11 14 17 12 10 9 10 10 8 8 8 6 5 8 11 11 12 12 11 8 5 6 7 5 6 8 7 7 9 11 9 8 9 10 14 13 11 16 20 20 19 18 18 18 18 17 17 16 16 17 17 18 18
48 47 48 46 43 39 37 34 27 23 24 24 23 13 6 11 9 8 11 12 16 12 15 21 17 17 20 18 19 16 15 12 10 12 19 17 9 11 7 8 9 9 11 10 7 5 6 7 14 15 10 9 10 10 8 7 9 9 6 6 7 7 8 11 12 9 9 8 9 13 11 11 16 19 20 19 19 19 19 20 20 20 19 16 18 20 19 16
48 48 48 46 42 38 36 32 23 21 24 23 17 9 6 12 14 17 14 10 20 14 10 19 17 17 21 23 25 17 8 10 14 16 15 10 8 10 8 9 10 9 10 11 6 5 7 13 18 14 8 7 8 10 11 10 11 9 7 6 6 6 7 10 13 9 8 8 7 13 12 11 16 19 21 22 20 19 20 22 22 22 20 17 18 19 18 16
49 49 48 45 41 37 34 28 19 20 26 22 12 10 14 19 23 24 13 5 16 14 5 9 9 10 14 16 19 14 9 11 11 15 12 5 6 11 9 9 11 9 10 13 10 9 9 13 15 11 8 10 9 11 14 12 10 8 7 6 6 8 6 8 10 7 6 7 8 14 12 8 13 15 19 23 22 19 21 23 21 21 22 20 21 20 18 19
51 50 47 44 40 36 32 23 16 21 27 19 10 15 23 26 27 24 10 3 9 10 4 4 3 4 7 7 8 8 8 10 10 14 12 6 6 9 10 10 11 10 10 15 16 13 11 6 9 13 12 14 12 11 13 10 9 10 11 10 8 11 12 11 9 5 4 6 7 13 9 5 10 13 14 18 18 18 19 20 18 18 21 20 20 20 20 21
53 50 47 44 37 34 28 15 15 26 25 13 13 22 27 28 29 22 7 2 5 6 4 1 1 1 3 4 5 6 6 8 10 13 9 5 6 8 8 7 8 10 12 15 16 14 13 6 12 17 15 14 14 11 13 11 8 10 14 15 14 13 15 13 9 5 4 6 5 11 8 3 10 16 15 14 15 16 16 18 19 18 18 18 18 19 20 21
53 50 47 41 33 33 23 7 15 28 18 9 17 27 28 31 33 21 5 1 4 5 2 2 1 5 10 6 3 2 4 6 10 17 16 11 8 6 8 5 6 10 11 11 10 8 10 9 10 15 16 16 15 12 14 13 7 8 13 17 17 15 16 13 8 4 3 5 6 10 11 5 8 15 17 17 18 19 17 19 21 19 17 17 17 18 19 18
53 49 45 36 29 28 15 5 19 22 9 10 24 30 29 34 33 17 3 1 3 5 4 3 3 8 15 16 9 2 3 5 6 14 17 17 10 5 9 9 5 8 8 6 7 7 10 13 12 13 16 15 14 12 14 16 10 8 10 14 16 15 17 16 8 5 4 4 5 5 8 5 6 12 18 21 20 19 18 19 20 18 18 19 18 18 19 19
53 49 43 32 24 19 12 13 19 14 10 20 30 30 31 34 26 8 3 1 4 4 2 3 6 10 15 19 11 2 4 9 4 5 11 19 14 5 9 12 9 8 9 10 9 7 10 16 16 14 13 11 13 13 13 16 13 7 8 11 14 15 17 15 8 5 5 4 6 5 4 3 4 7 13 20 20 18 19 21 21 19 19 19 19 19 20 21
53 47 39 30 19 13 14 16 14 12 20 27 29 32 34 28 13 3 4 1 3 5 2 5 10 11 15 20 13 5 8 9 7 7 7 15 15 8 7 9 11 9 11 14 11 6 7 12 15 14 12 10 12 13 12 14 12 8 8 9 11 13 16 13 7 6 6 5 7 7 4 4 5 3 8 15 17 17 18 20 20 20 19 20 20 20 20 19
53 44 34 26 16 12 16 17 13 16 24 26 28 34 30 16 4 4 2 1 3 7 4 5 10 12 17 19 15 14 13 8 10 13 7 7 11 10 7 5 8 8 10 13 13 9 6 7 12 14 12 9 9 11 13 14 12 9 9 9 8 9 11 10 5 5 6 6 9 9 8 6 6 4 6 12 16 20 18 16 17 17 19 20 20 20 20 18
51 40 29 21 14 13 13 12 15 20 24 26 31 29 17 6 4 3 1 1 4 6 5 7 11 13 18 16 12 15 16 10 12 15 12 7 6 9 6 5 7 7 6 7 9 11 11 9 9 10 13 12 8 9 13 15 13 9 8 8 7 4 5 6 4 4 6 6 7 9 9 8 6 5 5 10 16 23 21 18 19 20 19 20 19 19 19 19
50 37 24 16 12 13 10 11 18 21 23 27 25 14 5 4 3 1 2 4 4 5 7 9 13 14 16 14 8 11 13 11 12 12 11 10 5 7 8 7 5 6 8 6 4 7 11 13 9 7 13 16 12 8 9 12 13 10 6 7 6 4 3 6 5 4 5 5 7 8 9 7 7 6 7 9 12 18 20 20 23 23 21 21 20 19 17 17
48 34 21 12 10 14 14 15 18 18 21 24 15 4 4 3 2 1 4 4 3 6 7 9 14 14 13 11 8 10 9 7 12 13 11 12 9 4 10 10 7 7 8 6 4 4 7 11 13 12 10 13 15 9 7 8 10 11 9 7 7 6 6 6 5 3 4 6 8 7 8 6 5 6 9 10 11 13 14 17 22 25 24 23 21 19 17 16
47 33 20 12 9 11 12 12 13 14 18 17 8 3 4 2 1 4 4 2 3 8 9 10 14 12 9 8 8 11 7 5 14 16 11 12 11 6 5 9 9 7 5 4 5 6 7 7 12 15 7 8 15 12 8 8 9 11 10 8 7 6 6 5 4 4 4 4 6 5 5 6 5 6 9 11 11 11 11 13 19 23 24 21 19 19 18 18
45 34 19 11 8 7 9 10 11 11 10 8 5 3 3 1 2 3 3 3 4 7 10 10 11 8 7 7 7 11 8 6 14 14 10 11 8 7 8 6 4 4 3 3 3 4 9 8 6 11 8 8 14 13 10 9 9 10 9 7 9 7 5 3 3 5 4 2 4 5 4 5 5 5 6 7 7 9 12 12 15 19 20 18 16 18 18 17
45 35 19 11 9 10 13 16 15 10 4 5 4 2 0 2 1 1 2 3 3 6 9 9 6 5 6 7 8 11 10 7 12 10 7 10 8 7 9 7 11 13 8 3 4 2 6 8 4 8 12 12 13 12 12 11 7 6 9 9 8 6 6 3 4 2 4 4 4 4 4 3 2 5 6 6 7 6 10 12 14 19 20 18 16 17 17 17
41 32 16 11 17 20 24 26 22 13 3 6 2 2 2 2 0 1 3 5 4 4 6 5 4 4 6 7 7 12 13 7 9 9 7 8 6 8 11 8 13 16 14 8 4 3 4 6 6 9 15 16 14 12 13 13 8 6 10 9 6 4 4 4 2 2 3 5 4 4 6 4 2 5 6 7 9 8 9 10 12 19 21 19 17 18 19 19
33 24 11 7 22 31 33 30 20 9 3 5 2 4 2 2 1 1 3 5 5 3 2 3 3 3 6 7 7 11 13 8 8 8 6 6 4 9 11 8 9 16 19 15 4 2 6 5 6 10 14 14 14 12 11 13 13 10 8 9 8 5 7 6 4 4 4 4 3 4 6 5 4 5 4 8 12 11 10 9 10 17 21 19 18 19 21 20
25 14 3 10 29 37 37 29 13 1 4 1 3 3 2 2 1 3 3 4 3 3 2 3 3 3 4 7 8 9 10 8 9 7 4 5 5 7 11 8 11 17 21 16 7 5 6 3 4 8 9 8 10 10 9 12 14 10 7 9 9 6 6 5 3 4 4 4 3 3 4 5 5 6 8 13 15 13 12 10 9 16 21 20 19 19 19 19
16 5 2 17 34 38 38 25 5 4 2 2 3 2 3 1 2 5 3 5 4 2 3 4 4 4 4 6 8 8 7 7 8 7 5 6 8 6 10 12 14 19 19 13 8 8 6 2 3 6 6 5 6 9 12 13 11 9 7 9 9 4 4 5 2 3 5 4 4 4 4 6 6 8 14 17 16 14 15 13 10 14 20 21 21 20 19 18
9 0 4 22 36 37 30 13 4 3 1 2 0 2 4 4 3 4 4 7 4 2 3 5 5 5 4 6 7 7 6 5 6 6 5 6 7 4 9 15 15 17 17 10 7 8 6 3 4 6 6 5 7 8 14 16 11 9 7 8 10 6 5 6 5 3 4 4 4 5 4 7 7 8 12 16 15 15 16 15 11 13 20 22 21 22 20 18
4 1 10 24 35 33 18 4 4 6 1 4 6 5 7 6 5 4 5 7 5 2 3 4 4 5 4 4 6 7 6 4 4 3 4 7 7 7 11 18 16 14 13 9 7 9 7 3 5 7 5 9 14 11 10 15 13 10 7 6 8 7 7 8 7 5 6 5 4 4 3 7 7 7 10 13 15 16 17 16 12 13 19 21 21 21 20 20
1 5 16 24 31 26 9 4 6 5 3 7 9 8 8 6 6 7 7 7 5 2 2 3 3 4 3 4 5 7 7 4 0 1 5 7 8 9 13 17 16 14 11 7 6 9 8 3 3 6 7 9 13 12 9 10 13 11 8 6 8 9 9 8 6 6 6 6 5 2 3 7 7 5 7 12 16 16 16 15 13 14 16 19 21 19 18 19
2 5 9 18 29 21 5 4 6 4 5 9 9 9 9 6 8 9 8 8 5 2 2 1 2 3 3 4 5 7 8 2 1 3 5 6 7 9 12 14 16 13 7 6 6 6 6 4 4 6 5 5 7 7 6 7 9 9 8 9 11 13 11 6 5 5 5 7 7 4 4 7 7 6 5 7 13 14 12 12 12 15 16 17 17 17 18 18
3 3 4 12 21 14 5 4 4 3 6 9 9 10 9 7 7 8 8 8 5 5 4 1 2 3 4 4 5 8 6 3 3 3 4 5 7 7 9 14 15 12 10 11 10 5 4 4 2 3 4 4 4 4 3 3 4 6 11 15 14 14 13 7 5 6 5 7 7 6 6 9 8 8 9 4 9 11 11 11 10 13 17 18 16 16 17 18
2 2 3 7 8 5 3 4 4 3 5 7 6 7 9 8 6 7 7 5 7 9 6 1 4 5 4 5 5 8 7 2 1 3 4 6 6 4 9 14 14 13 11 10 10 5 3 4 5 7 8 7 7 9 9 7 8 8 12 18 16 13 14 9 5 5 6 6 5 7 9 10 9 8 9 4 7 9 9 11 9 10 15 18 18 17 17 16
1 2 3 4 3 4 5 5 5 5 5 5 4 5 7 7 5 6 5 4 7 9 4 1 4 4 4 5 5 5 8 8 5 4 5 6 6 6 10 12 12 11 10 10 10 5 2 4 7 9 12 13 15 18 18 13 11 14 13 17 18 14 13 11 7 7 7 7 5 8 11 11 8 7 8 5 5 7 7 9 9 10 14 17 18 19 19 18
1 1 2 2 2 3 5 6 8 8 8 7 4 3 7 6 6 6 4 5 8 7 3 2 3 4 4 5 5 4 6 7 5 5 4 4 6 8 8 8 7 8 14 10 7 5 2 5 7 9 16 20 20 20 18 14 12 13 13 18 20 16 16 13 9 9 9 8 8 9 11 12 8 8 10 7 5 5 7 8 7 9 13 16 18 20 21 20
1 2 1 2 1 2 4 8 10 9 9 8 4 3 6 8 9 8 5 6 8 6 5 4 4 6 7 6 5 3 4 5 5 6 4 3 6 7 5 5 4 7 12 10 7 5 2 5 7 12 18 20 18 15 12 11 8 9 9 18 21 16 17 15 9 9 9 8 9 10 11 12 8 7 7 4 3 2 2 5 7 9 12 15 19 21 21 21
0 1 1 1 1 3 4 6 7 7 6 6 4 3 5 8 9 10 7 6 7 6 6 6 7 7 6 7 6 4 3 5 8 8 7 5 5 2 1 2 5 8 11 8 7 5 2 5 9 12 12 13 12 11 11 10 9 7 5 11 22 20 17 14 10 7 7 7 7 7 8 8 6 2 2 4 5 6 6 6 7 8 12 15 18 20 19 20
3 3 3 2 3 3 3 3 4 4 4 3 2 3 4 5 6 9 8 6 7 7 6 7 9 8 4 5 7 5 4 7 10 11 11 10 7 2 3 2 5 9 9 7 7 6 3 5 8 8 7 7 9 13 16 16 10 3 8 3 12 18 13 11 10 7 3 5 5 6 5 5 4 3 7 8 8 10 8 8 7 6 8 12 16 17 17 18
4 4 3 2 2 2 2 2 3 3 3 3 5 6 4 2 4 8 7 4 5 8 8 6 7 6 4 5 7 6 5 8 11 11 11 12 9 5 5 6 8 8 6 6 7 6 4 4 5 6 5 7 10 15 14 11 6 5 8 11 6 5 6 5 5 4 5 1 3 4 5 7 6 7 10 9 10 11 9 6 6 7 8 8 10 13 14 15
Wind_Direction
359 356 354 356 354 351 352 353 354 353 352 351 351 350 349 349 347 346 343 339 336 331 328 326 323 320 315 312 311 311 315 307 298 283 243 253 252 238 228 208 187 178 174 168 165 166 169 190 201 196 186 178 205 217 219 226 198 183 176 215 239 230 230 203 203 141 137 166 198 204 180 181 175 171 204 226 200 161 150 150 132 122 121 132 136 143 149 151
355 352 354 354 352 352 353 353 353 351 349 348 349 349 350 349 347 346 343 340 338 332 328 326 323 320 316 313 311 316 318 305 292 267 257 261 260 248 233 218 209 189 184 189 179 167 172 195 194 190 189 182 198 208 215 216 202 200 175 203 234 223 215 198 198 150 138 162 184 199 188 191 194 185 201 194 174 159 147 138 132 125 121 128 137 145 151 153
353 353 353 353 352 353 353 352 351 349 349 349 348 348 349 349 347 345 343 342 340 336 330 326 324 321 316 311 313 328 314 309 292 259 270 275 255 245 233 217 213 202 192 193 185 176 183 188 184 180 187 207 208 211 212 212 209 202 186 221 240 229 236 234 199 178 155 156 171 191 189 203 210 196 207 183 165 160 152 146 142 137 135 139 146 150 151 153
357 357 356 355 354 354 353 352 350 349 349 349 347 347 348 348 347 345 343 342 340 338 332 328 326 320 316 316 314 327 303 300 273 244 281 340 260 229 218 212 204 199 197 193 186 183 187 182 182 182 186 215 221 223 222 218 209 187 194 222 239 224 235 247 198 166 160 146 158 173 181 200 208 207 213 174 163 165 162 159 153 146 145 147 151 153 153 154
1 360 359 357 355 354 352 352 351 350 349 347 347 347 347 347 346 344 343 341 340 338 333 329 325 320 319 326 42 342 321 301 274 222 296 359 321 211 195 193 193 193 191 189 186 186 193 182 178 192 199 217 218 225 228 219 214 218 216 223 238 219 215 247 195 160 161 138 143 148 179 192 185 206 208 175 175 172 163 161 154 149 150 152 153 155 155 157
2 0 359 356 355 353 352 351 350 349 348 347 346 346 346 345 345 344 343 340 340 336 332 329 323 323 324 3 109 125 158 279 293 245 224 21 19 199 186 181 183 188 185 181 181 186 198 188 181 194 199 214 217 221 230 218 214 239 238 230 235 225 223 240 174 176 161 144 159 148 169 161 160 215 196 176 181 158 155 154 153 153 153 152 152 154 157 161
1 359 358 355 354 352 351 350 349 349 347 346 345 345 344 344 344 343 341 339 337 334 330 328 322 325 11 105 120 105 91 265 275 256 237 323 356 284 185 184 180 178 180 177 176 184 195 194 192 193 195 211 218 225 234 227 221 234 248 242 234 224 226 213 167 192 169 172 191 144 142 152 177 227 191 176 159 140 146 148 150 151 151 151 152 157 159 161
0 359 357 354 353 351 350 349 348 348 346 345 344 343 343 343 343 341 340 337 333 330 327 324 321 322 131 127 138 161 220 254 267 272 260 270 296 267 169 177 177 175 178 178 179 182 187 197 201 193 198 212 213 222 227 230 232 233 240 244 238 222 219 196 178 201 185 185 197 144 129 170 191 193 190 174 142 139 142 144 147 148 152 154 156 160 159 160
360 358 356 353 352 350 349 347 347 346 345 344 342 342 342 341 341 339 338 335 330 326 322 317 313 318 153 165 203 286 248 252 292 318 276 265 272 181 162 168 176 177 178 184 185 183 182 193 206 204 207 214 218 226 223 225 232 231 235 241 242 227 208 189 192 205 197 190 183 152 134 180 191 137 276 180 143 142 142 144 148 151 157 160 160 160 160 163
359 357 355 352 350 349 347 346 345 345 344 342 341 341 340 340 340 338 337 334 329 322 319 311 299 36 154 197 172 244 255 235 16 9 281 243 213 172 167 169 176 177 179 188 190 190 191 192 200 211 235 230 224 227 221 222 232 235 239 244 243 233 209 193 202 207 193 186 172 153 158 177 165 140 226 176 146 143 142 147 152 155 161 164 166 160 161 167
358 355 353 352 350 348 347 345 345 345 343 341 340 339 339 339 339 338 338 334 328 316 308 291 280 163 171 221 163 219 250 176 68 27 15 219 193 177 175 174 175 178 181 186 197 200 200 204 198 201 232 228 230 238 233 232 241 248 248 257 250 234 215 201 205 205 181 190 171 143 138 136 120 185 183 153 148 146 145 151 156 160 163 167 170 162 162 169
357 355 352 351 350 347 346 345 345 345 343 340 339 339 339 340 340 339 337 334 325 304 281 257 227 158 168 288 222 227 243 206 225 339 333 238 202 195 188 182 180 182 181 179 203 204 204 212 208 209 223 204 221 246 246 235 237 248 247 262 265 246 221 204 202 197 181 190 164 136 89 128 179 202 159 150 152 149 149 154 159 162 164 169 173 166 165 169
357 355 352 351 349 347 346 345 346 345 343 340 338 339 340 340 340 337 335 334 323 289 242 212 180 165 154 200 240 243 258 268 277 301 297 255 231 222 199 190 188 187 186 184 198 202 208 215 213 228 247 242 228 241 264 249 232 243 239 243 260 260 230 202 195 191 187 174 152 151 183 207 210 178 156 154 153 151 153 158 161 163 167 172 175 172 170 172
356 355 352 351 349 348 347 346 347 346 343 340 339 340 340 341 339 336 337 337 321 284 221 178 152 155 169 255 263 267 276 278 279 280 266 246 242 231 209 197 193 192 192 194 199 202 209 217 220 239 256 259 263 274 280 275 255 247 244 240 230 244 241 201 192 184 186 170 149 162 214 212 210 166 157 158 156 156 159 163 164 166 168 173 177 176 177 178
355 355 352 350 348 348 348 347 347 346 343 339 339 341 341 342 338 336 342 351 353 289 166 147 155 151 220 269 275 290 296 277 267 260 247 237 228 213 208 199 194 196 198 202 205 205 210 215 221 237 253 253 256 268 273 276 275 246 238 257 220 219 245 205 195 182 183 174 158 171 195 191 214 173 161 165 163 161 162 165 168 169 170 173 177 178 181 183
355 354 352 349 348 348 348 347 347 347 344 339 341 342 343 344 336 337 347 4 17 249 158 138 169 175 277 272 286 305 290 258 265 262 244 230 224 214 202 196 197 198 201 207 206 208 213 209 211 228 243 251 242 236 252 276 271 233 202 243 246 224 237 208 201 194 189 178 171 189 192 165 204 182 166 170 170 166 165 168 170 172 173 174 176 179 181 183
356 354 352 350 348 348 347 347 347 347 345 340 344 346 349 348 334 335 354 1 359 283 192 152 169 175 253 275 301 309 285 299 305 303 266 233 223 220 201 187 194 196 198 207 205 209 214 204 208 222 226 236 227 191 212 242 241 245 196 224 255 231 224 207 203 204 194 184 185 198 208 172 170 172 170 173 172 169 167 170 173 174 174 175 176 179 182 183
356 353 352 350 348 347 346 346 345 347 346 343 350 352 354 353 335 327 13 356 346 284 215 221 177 167 261 269 288 295 308 325 321 314 295 241 216 219 212 192 187 184 189 205 201 203 206 197 202 221 228 222 214 193 205 221 214 223 207 212 260 238 226 216 208 206 190 194 197 194 207 189 153 164 173 175 173 170 172 173 176 175 175 176 176 180 183 185
356 354 353 351 349 346 345 346 345 348 349 349 359 1 360 0 345 322 42 342 331 276 256 252 187 205 285 276 262 281 302 310 308 304 289 234 204 211 215 205 190 175 176 195 194 194 190 185 198 215 225 214 212 209 209 219 205 211 209 208 242 241 237 230 225 217 186 195 201 194 204 183 159 170 176 176 173 171 175 176 176 177 177 177 177 182 184 187
356 354 354 352 348 344 344 345 346 351 353 355 4 5 3 5 1 351 337 317 281 247 252 252 224 244 276 282 279 295 314 307 291 291 287 258 196 190 205 203 189 179 185 192 188 189 181 191 217 217 217 212 214 216 208 221 237 236 226 222 237 243 246 238 234 226 191 191 203 201 200 175 170 176 175 175 173 174 177 175 178 180 180 180 180 182 184 188
355 355 354 352 348 343 343 345 349 355 357 1 10 14 15 11 3 326 328 305 278 259 243 249 239 240 255 262 273 302 331 314 289 283 281 272 208 176 188 187 186 194 194 187 177 181 182 210 226 218 212 209 209 213 210 217 237 245 239 236 242 240 248 246 240 228 194 195 212 205 194 176 177 177 174 173 174 180 181 177 181 183 182 182 181 184 186 187
355 354 354 353 349 343 341 345 351 357 359 6 16 29 16 1 349 327 328 307 295 293 242 249 244 240 250 253 263 281 298 284 291 285 272 262 213 187 182 185 194 201 189 182 178 178 197 226 226 209 196 207 201 201 209 220 231 241 243 244 250 240 258 264 254 244 204 200 212 201 194 185 183 177 174 177 179 184 185 182 183 182 181 182 183 185 184 183
355 353 353 353 349 343 341 343 355 3 360 359 1 8 355 342 340 335 332 286 294 305 275 252 241 241 253 255 259 259 248 250 266 271 260 242 213 195 190 195 196 202 189 186 191 183 202 228 217 191 188 206 207 198 201 216 228 234 238 235 245 240 243 257 255 256 225 218 205 193 194 187 183 178 176 182 183 183 187 187 183 180 182 183 184 183 180 181
355 353 352 352 349 345 341 344 360 2 355 352 348 351 347 337 338 342 335 247 287 297 276 243 210 238 258 258 246 223 230 235 234 257 252 217 204 193 198 202 194 208 202 190 196 202 219 221 170 180 200 204 210 206 196 204 220 228 234 229 236 239 234 239 251 281 285 260 210 182 186 189 180 181 185 187 185 185 189 188 185 184 185 184 183 183 180 181
354 353 351 351 350 346 344 351 360 352 345 348 350 342 341 338 337 341 340 294 298 272 239 228 134 322 297 242 218 203 236 242 227 246 246 207 210 196 196 205 196 211 209 194 196 212 231 212 156 182 201 203 211 213 200 197 206 222 230 230 230 239 244 246 254 277 299 290 237 176 179 221 189 186 189 187 188 192 189 188 191 189 185 183 182 185 184 183
352 352 351 350 350 348 352 2 344 342 336 336 344 337 338 338 333 334 348 10 307 270 293 6 313 360 1 338 296 217 262 269 228 234 242 240 246 216 196 202 203 212 207 196 200 215 226 212 181 188 194 201 211 216 208 198 198 219 221 226 230 238 251 255 258 255 227 261 255 190 184 201 193 192 192 186 189 194 190 192 196 192 185 184 184 187 185 182
351 352 351 349 351 354 357 329 332 339 328 323 336 333 332 333 329 329 14 66 307 296 339 357 306 358 357 333 326 147 213 293 234 224 228 226 239 255 219 200 194 210 193 192 217 210 201 202 203 201 196 200 208 214 207 196 203 219 203 215 230 237 247 251 253 252 237 267 295 234 195 179 188 197 193 189 190 191 192 196 199 196 190 187 187 187 184 182
351 351 351 349 351 354 345 326 328 328 320 326 330 329 325 327 327 334 88 30 312 330 1 342 334 355 348 331 332 161 259 310 306 253 222 211 212 240 238 208 196 207 192 202 219 191 187 199 202 206 205 203 208 211 200 196 212 217 180 201 224 235 248 251 246 253 258 278 299 276 216 202 229 207 186 187 191 192 195 199 199 197 192 189 190 187 185 184
351 350 350 349 348 350 341 331 320 314 327 329 326 325 323 324 333 57 90 295 338 20 19 345 348 346 342 339 343 347 316 311 313 309 240 208 202 206 245 215 198 211 210 218 225 189 188 198 194 207 218 210 210 213 200 200 213 210 195 206 213 225 244 249 236 242 252 247 254 245 204 222 261 240 176 182 191 194 198 202 199 195 190 190 190 188 187 184
350 349 349 350 346 343 336 332 326 327 333 331 327 328 326 329 27 78 49 273 343 6 3 6 359 344 346 345 339 345 340 317 328 335 306 229 202 204 245 235 207 220 224 226 226 220 223 199 187 205 222 212 199 206 206 207 208 194 200 222 227 223 238 248 228 211 229 239 243 229 199 207 254 260 189 181 191 193 196 201 199 195 192 192 192 188 186 184
350 349 348 351 347 334 328 326 331 335 336 333 330 331 333 357 70 110 71 327 318 349 2 3 357 348 349 345 333 343 343 334 354 357 337 299 214 198 222 226 210 217 235 240 228 223 230 226 201 200 212 206 192 202 207 207 207 196 188 208 234 246 247 252 230 194 213 234 244 219 193 202 238 258 219 196 197 194 192 194 194 196 195 193 194 191 187 184
350 348 343 350 342 320 306 302 320 331 332 329 328 336 10 36 37 142 331 334 323 359 3 347 349 347 339 337 338 342 338 338 356 359 343 321 272 204 204 208 194 205 226 238 230 216 221 229 229 213 207 203 200 206 204 203 205 204 192 190 207 218 221 234 229 215 209 230 243 198 175 205 230 235 226 212 208 200 195 193 191 194 195 193 194 193 189 185
349 347 337 343 329 307 304 305 318 327 323 326 332 1 70 67 49 357 342 352 343 347 349 335 338 337 332 336 345 342 337 349 359 354 343 337 332 245 217 213 193 201 218 215 208 215 221 227 226 225 217 200 202 203 195 202 198 197 200 189 190 197 201 218 230 231 207 229 244 193 171 215 235 236 227 214 216 209 200 195 190 193 195 192 191 190 187 185
348 349 336 328 315 308 316 320 330 327 318 332 356 25 48 74 19 3 357 353 324 332 342 335 328 327 338 345 350 2 4 4 2 356 348 349 353 350 283 237 212 215 227 205 200 206 223 229 215 219 215 179 202 208 186 184 192 200 199 186 197 199 189 200 202 203 205 230 245 206 188 200 197 223 218 207 217 210 202 200 191 195 198 190 187 187 185 185
348 352 345 330 325 336 344 337 339 333 323 355 23 26 52 108 299 351 345 324 332 338 334 326 324 328 354 348 349 20 25 352 358 357 357 358 344 352 352 313 307 334 314 248 235 210 226 240 206 210 214 182 202 209 183 172 189 204 192 185 211 197 161 183 200 182 160 168 231 220 216 203 196 241 235 215 230 215 207 202 182 190 199 189 183 187 187 188
348 355 356 348 354 360 349 337 330 325 346 46 35 3 111 195 263 316 330 348 344 332 324 324 340 344 354 347 341 3 1 344 358 359 357 348 326 357 14 3 15 19 23 351 288 260 235 242 210 198 215 213 210 204 191 186 179 189 196 199 201 168 149 191 246 225 133 163 237 234 242 274 268 269 269 248 252 235 216 203 176 181 191 186 183 187 189 189
347 347 339 349 9 359 344 338 328 315 6 77 62 279 253 213 200 306 351 353 312 307 327 332 4 359 347 345 340 352 351 350 8 2 345 331 327 19 16 2 22 22 13 359 287 304 331 265 232 208 213 216 214 211 209 200 168 164 201 194 144 130 170 175 210 262 167 191 256 248 230 255 243 247 268 248 244 251 230 205 177 177 183 184 185 189 189 188
341 332 310 350 5 354 346 343 332 312 80 81 281 268 253 204 101 19 10 348 307 298 342 322 348 7 348 336 334 355 359 360 6 355 341 329 339 32 21 354 11 12 358 348 313 321 346 301 252 229 218 209 204 210 222 213 196 187 189 169 146 171 199 177 179 208 188 193 260 272 234 223 208 228 256 231 230 240 235 214 175 173 181 182 185 190 191 187
344 334 300 359 357 353 350 346 332 317 92 65 257 260 257 203 31 346 339 7 336 315 334 319 336 2 342 333 340 1 7 359 352 347 346 341 329 13 30 9 345 355 356 349 336 325 329 313 271 255 237 213 195 198 214 216 207 194 164 164 175 185 181 172 178 175 164 186 219 246 246 236 226 217 222 225 223 223 225 221 188 174 179 181 184 191 190 185
350 339 266 350 355 354 349 344 347 98 96 224 210 255 292 295 5 324 342 41 21 323 342 336 336 347 336 342 350 1 5 352 345 340 327 332 325 339 32 24 346 343 348 344 334 328 330 346 292 289 295 265 209 196 207 211 205 189 172 179 187 169 142 172 202 164 150 158 187 196 233 250 242 217 221 227 222 217 218 216 200 177 177 181 185 190 188 183
336 319 300 347 355 350 346 351 29 22 290 238 268 318 331 357 347 331 35 44 21 343 356 340 340 354 348 355 356 352 353 340 336 333 306 329 342 334 14 13 351 341 343 341 347 344 342 351 297 295 322 289 248 224 208 207 208 195 182 188 189 166 142 178 221 219 170 156 169 177 220 254 244 217 221 226 220 218 217 213 200 176 176 182 186 189 185 179
332 333 310 340 351 346 346 53 24 347 347 348 356 3 356 351 341 358 39 32 10 348 350 341 349 6 5 360 351 339 334 325 331 332 292 313 327 315 341 352 348 347 343 329 331 329 314 300 271 269 280 263 262 267 228 208 209 202 190 188 189 175 160 182 207 204 189 199 194 171 213 263 255 215 209 221 222 218 215 211 195 173 177 184 188 187 181 177
359 302 304 334 349 344 350 81 10 1 18 345 350 4 357 348 356 11 16 5 353 322 337 354 4 17 16 354 337 318 316 324 29 312 298 305 312 312 329 341 342 344 340 324 326 325 318 333 308 289 286 268 266 278 269 226 207 203 202 182 183 192 182 177 183 174 182 205 203 194 248 267 270 236 205 219 226 220 211 203 185 170 178 186 186 183 178 179
309 282 292 339 350 351 29 64 359 356 350 342 347 353 353 355 6 9 353 335 327 300 308 10 25 22 353 336 326 314 323 3 146 291 302 296 302 315 325 333 336 335 325 315 322 326 327 349 350 321 302 265 261 273 281 250 212 206 205 189 192 196 181 155 146 157 191 208 187 170 230 254 269 291 287 233 216 209 200 190 173 166 177 185 182 177 176 179
308 272 264 338 350 3 57 44 4 355 344 345 345 343 348 355 0 358 334 322 342 351 334 329 23 15 346 335 327 323 337 118 172 275 278 284 301 313 320 327 328 316 290 296 309 310 304 300 296 304 275 231 226 227 240 279 255 226 204 197 196 186 176 164 135 156 201 213 189 177 219 259 280 310 318 271 179 179 182 174 161 163 173 177 175 176 178 179
329 328 304 334 348 14 41 19 20 12 344 344 340 339 344 343 346 347 337 344 5 355 337 338 23 10 344 338 329 320 326 328 294 297 276 295 309 303 317 323 316 303 300 321 335 331 289 283 256 246 254 259 270 270 277 308 306 266 219 199 192 181 180 173 144 168 187 178 191 208 220 251 280 299 301 272 155 157 171 163 148 155 169 172 173 176 179 179
346 346 342 342 327 349 5 4 10 360 324 314 316 323 327 325 334 349 358 3 346 334 325 15 25 3 324 333 334 316 317 319 317 300 285 302 306 298 313 312 299 314 344 357 350 336 296 296 276 260 268 277 281 279 281 287 279 270 246 205 189 181 180 178 181 188 161 147 202 236 227 234 260 273 267 241 150 138 156 165 159 157 167 172 173 174 178 179
346 322 16 14 321 345 351 331 330 324 307 307 310 301 310 325 352 360 359 338 324 323 329 344 2 348 325 330 327 305 315 319 305 298 297 303 307 312 318 294 282 350 7 354 339 344 318 280 284 299 302 294 284 276 270 262 257 269 253 207 189 185 186 186 197 187 155 158 203 225 224 223 232 250 252 240 198 169 164 171 161 151 162 169 170 173 178 179
326 272 336 33 354 315 303 295 302 305 307 319 321 308 331 356 5 356 346 330 320 325 337 327 333 341 331 325 314 292 323 327 300 297 294 283 308 324 331 303 296 6 2 342 335 358 330 272 299 318 309 294 285 280 273 263 267 296 261 199 184 191 195 185 187 191 176 182 198 199 211 222 228 235 245 249 221 185 144 147 133 139 157 165 168 172 178 181
311 233 307 347 283 269 267 278 296 303 309 313 298 315 1 12 358 340 330 320 308 315 336 326 319 323 319 317 309 277 289 300 289 294 292 280 298 314 339 315 309 330 341 338 333 343 335 298 314 323 311 290 294 323 334 312 289 315 312 200 185 192 199 188 183 191 193 203 196 169 183 229 260 239 90 57 72 72 68 89 109 141 162 163 166 171 174 180
254 241 257 287 287 279 267 272 295 299 295 291 297 337 4 16 345 320 311 303 297 306 321 318 317 318 304 304 301 279 283 297 293 299 298 288 278 212 157 212 277 305 326 330 318 317 314 301 309 326 321 291 310 341 339 318 301 354 14 324 198 190 192 195 180 154 174 217 182 129 154 228 255 107 81 64 72 76 73 80 88 109 140 151 161 166 170 178
280 262 236 237 276 279 267 271 279 282 282 301 326 329 329 349 324 310 306 298 288 295 300 304 313 315 300 300 296 282 294 302 294 294 293 284 270 225 185 207 239 263 286 301 306 299 284 294 314 335 325 288 311 331 322 314 343 47 28 359 313 198 146 159 166 95 33 353 162 166 197 211 191 121 89 70 65 64 56 59 81 97 102 118 145 155 164 174